• In Deutschland
  • Länderverzeichnis
  • Für 7 Tage
  • Wassertemperatur
  • Satellitenkarten
  • Wetterkarte
  • Widgets
  • user-avatar
    Anmelden

    Stündliche Wetter Springe

    Heute, 11 Dezember, Montag

    Zeit Temperatur Niederschläge Wind Luftdruck Luftfeuchtigkeit
    00:00 0°C° 0,5 mm 7 m/S 721 mmHg 88%
    01:00 0°C° 0 mm 7 m/S 722 mmHg 89%
    02:00 -1°C° 0 mm 7 m/S 723 mmHg 88%
    03:00 -2°C° 0 mm 7 m/S 724 mmHg 88%
    04:00 -3°C° 0 mm 7 m/S 725 mmHg 87%
    05:00 -3°C° 0 mm 6 m/S 725 mmHg 89%
    06:00 -3°C° 0 mm 4 m/S 726 mmHg 90%
    07:00 -2°C° 0 mm 2 m/S 727 mmHg 93%
    08:00 -2°C° 0 mm 2 m/S 727 mmHg 92%
    09:00 0°C° 0 mm 1 m/S 728 mmHg 92%
    10:00 0°C° 0 mm 1 m/S 728 mmHg 91%
    11:00 -2°C° 0,3 mm 2 m/S 727 mmHg 92%
    12:00 -1°C° 0,3 mm 2 m/S 727 mmHg 93%
    13:00 -1°C° 0 mm 2 m/S 726 mmHg 95%
    14:00 -1°C° 1,1 mm 3 m/S 726 mmHg 95%
    15:00 -1°C° 1,1 mm 3 m/S 725 mmHg 95%
    16:00 -2°C° 1,1 mm 4 m/S 725 mmHg 95%
    17:00 -1°C° 0,2 mm 4 m/S 725 mmHg 95%
    18:00 0°C° 0,2 mm 4 m/S 725 mmHg 95%
    19:00 0°C° 0,2 mm 4 m/S 725 mmHg 96%
    20:00 +1°C° 0,1 mm 4 m/S 725 mmHg 95%
    21:00 +3°C° 0,1 mm 4 m/S 725 mmHg 94%
    22:00 +3°C° 0,1 mm 4 m/S 725 mmHg 94%
    23:00 +2°C° 0,1 mm 5 m/S 725 mmHg 92%

    Morgen, 12 Dezember, Dienstag

    Zeit Temperatur Niederschläge Wind Luftdruck Luftfeuchtigkeit
    00:00 +2°C° 0,1 mm 5 m/S 725 mmHg 91%
    01:00 +2°C° 0,1 mm 5 m/S 725 mmHg 90%
    02:00 +2°C° 0,1 mm 5 m/S 726 mmHg 90%
    03:00 +2°C° 0,1 mm 6 m/S 726 mmHg 90%
    04:00 +2°C° 0,1 mm 6 m/S 727 mmHg 90%
    05:00 +1°C° 0,2 mm 6 m/S 728 mmHg 91%
    06:00 -1°C° 0,2 mm 7 m/S 730 mmHg 91%
    07:00 -1°C° 0,2 mm 7 m/S 731 mmHg 91%
    08:00 -1°C° 0,2 mm 7 m/S 733 mmHg 90%
    09:00 -1°C° 0,2 mm 7 m/S 735 mmHg 88%
    10:00 -1°C° 0,2 mm 7 m/S 736 mmHg 87%
    11:00 -1°C° 0,5 mm 8 m/S 738 mmHg 87%
    12:00 -1°C° 0,5 mm 8 m/S 739 mmHg 86%
    13:00 -1°C° 0,5 mm 8 m/S 740 mmHg 86%
    14:00 -1°C° 0,5 mm 7 m/S 741 mmHg 88%
    15:00 -1°C° 0,5 mm 7 m/S 742 mmHg 89%
    16:00 -1°C° 0,5 mm 6 m/S 743 mmHg 90%
    17:00 -1°C° 0,1 mm 5 m/S 744 mmHg 90%
    18:00 -1°C° 0,1 mm 5 m/S 745 mmHg 90%
    19:00 -1°C° 0,1 mm 4 m/S 746 mmHg 90%
    20:00 -2°C° 0 mm 4 m/S 747 mmHg 91%
    21:00 -2°C° 0 mm 4 m/S 747 mmHg 92%
    22:00 -2°C° 0 mm 4 m/S 748 mmHg 92%
    23:00 -2°C° 0 mm 5 m/S 748 mmHg 92%

    übermorgen, 13 Dezember, Mittwoch

    Zeit Temperatur Niederschläge Wind Luftdruck Luftfeuchtigkeit
    00:00 -2°C° 0 mm 5 m/S 748 mmHg 91%
    01:00 -2°C° 0 mm 5 m/S 748 mmHg 91%
    02:00 -2°C° 0 mm 5 m/S 748 mmHg 89%
    03:00 -2°C° 0 mm 5 m/S 748 mmHg 88%
    04:00 -2°C° 0 mm 5 m/S 748 mmHg 86%
    05:00 -2°C° 0 mm 5 m/S 747 mmHg 85%
    06:00 -3°C° 0 mm 6 m/S 747 mmHg 84%
    07:00 -3°C° 0 mm 6 m/S 746 mmHg 83%
    08:00 -3°C° 0 mm 7 m/S 746 mmHg 83%
    09:00 -2°C° 0 mm 7 m/S 745 mmHg 82%
    10:00 -1°C° 0 mm 7 m/S 745 mmHg 81%
    11:00 -1°C° 0,2 mm 8 m/S 743 mmHg 81%
    12:00 0°C° 0,2 mm 8 m/S 742 mmHg 81%
    13:00 0°C° 0,2 mm 8 m/S 741 mmHg 81%
    14:00 0°C° 0,7 mm 8 m/S 740 mmHg 81%
    15:00 0°C° 0,7 mm 8 m/S 739 mmHg 82%
    16:00 +1°C° 0,7 mm 8 m/S 738 mmHg 83%
    17:00 +2°C° 0,5 mm 7 m/S 737 mmHg 84%
    18:00 +2°C° 0,5 mm 7 m/S 737 mmHg 86%
    19:00 +2°C° 0,5 mm 6 m/S 736 mmHg 87%
    20:00 +2°C° 0,3 mm 7 m/S 735 mmHg 87%
    21:00 +2°C° 0,3 mm 7 m/S 734 mmHg 86%
    22:00 +2°C° 0,3 mm 8 m/S 733 mmHg 86%
    23:00 +2°C° 1,5 mm 8 m/S 733 mmHg 86%

    14 Dezember, Donnerstag

    Zeit Temperatur Niederschläge Wind Luftdruck Luftfeuchtigkeit
    00:00 +2°C° 1,5 mm 8 m/S 732 mmHg 85%
    01:00 +2°C° 1,5 mm 8 m/S 732 mmHg 85%
    02:00 +2°C° 0,2 mm 7 m/S 732 mmHg 84%
    03:00 +1°C° 0,2 mm 6 m/S 733 mmHg 83%
    04:00 0°C° 0,2 mm 5 m/S 733 mmHg 82%
    05:00 -1°C° 0,6 mm 6 m/S 733 mmHg 79%
    06:00 -1°C° 0,6 mm 7 m/S 734 mmHg 76%
    07:00 -1°C° 0,6 mm 8 m/S 734 mmHg 73%
    08:00 -1°C° 0 mm 8 m/S 735 mmHg 72%
    09:00 -1°C° 0 mm 8 m/S 735 mmHg 71%
    10:00 -1°C° 0 mm 8 m/S 736 mmHg 71%
    11:00 -1°C° 0 mm 8 m/S 735 mmHg 70%
    12:00 0°C° 0 mm 8 m/S 735 mmHg 70%
    13:00 0°C° 0 mm 8 m/S 735 mmHg 69%
    14:00 +1°C° 0 mm 6 m/S 734 mmHg 73%
    15:00 +1°C° 0 mm 5 m/S 734 mmHg 77%
    16:00 0°C° 0 mm 4 m/S 733 mmHg 81%
    17:00 0°C° 0 mm 4 m/S 733 mmHg 84%
    18:00 +1°C° 0 mm 3 m/S 732 mmHg 86%
    19:00 0°C° 0 mm 3 m/S 731 mmHg 89%
    20:00 +1°C° 0 mm 2 m/S 731 mmHg 90%
    21:00 +1°C° 0 mm 2 m/S 731 mmHg 91%
    22:00 +1°C° 0 mm 2 m/S 731 mmHg 92%
    23:00 +1°C° 0,1 mm 2 m/S 731 mmHg 91%

    15 Dezember, Freitag

    Zeit Temperatur Niederschläge Wind Luftdruck Luftfeuchtigkeit
    00:00 0°C° 0,1 mm 3 m/S 731 mmHg 90%
    01:00 -1°C° 0,1 mm 4 m/S 731 mmHg 89%
    02:00 -1°C° 0 mm 4 m/S 732 mmHg 89%
    03:00 -1°C° 0 mm 4 m/S 733 mmHg 89%
    04:00 -2°C° 0 mm 4 m/S 733 mmHg 89%
    05:00 -2°C° 0 mm 4 m/S 733 mmHg 88%
    06:00 -2°C° 0 mm 4 m/S 734 mmHg 88%
    07:00 -3°C° 0 mm 4 m/S 734 mmHg 87%
    08:00 -2°C° 0,3 mm 4 m/S 734 mmHg 87%
    09:00 -2°C° 0,3 mm 4 m/S 734 mmHg 87%
    10:00 -1°C° 0,3 mm 4 m/S 734 mmHg 87%
    11:00 -1°C° 0,7 mm 4 m/S 734 mmHg 88%
    12:00 0°C° 0,7 mm 4 m/S 734 mmHg 89%
    13:00 0°C° 0,7 mm 4 m/S 734 mmHg 90%
    14:00 +1°C° 0,2 mm 3 m/S 734 mmHg 90%
    15:00 +1°C° 0,2 mm 3 m/S 734 mmHg 91%
    16:00 +1°C° 0,2 mm 3 m/S 735 mmHg 92%
    17:00 +1°C° 0 mm 2 m/S 735 mmHg 93%
    18:00 +1°C° 0 mm 2 m/S 735 mmHg 93%
    19:00 +1°C° 0 mm 2 m/S 736 mmHg 93%
    20:00 +1°C° 0 mm 2 m/S 736 mmHg 94%
    21:00 +1°C° 0 mm 2 m/S 736 mmHg 94%
    22:00 +2°C° 0 mm 1 m/S 737 mmHg 94%
    23:00 +2°C° 0 mm 1 m/S 737 mmHg 95%

    16 Dezember, Samstag

    Zeit Temperatur Niederschläge Wind Luftdruck Luftfeuchtigkeit
    00:00 +2°C° 0 mm 1 m/S 738 mmHg 96%
    01:00 +2°C° 0 mm 1 m/S 738 mmHg 96%
    02:00 -1°C° 0 mm 2 m/S 738 mmHg 97%
    03:00 -1°C° 0 mm 2 m/S 739 mmHg 97%
    04:00 -1°C° 0 mm 2 m/S 739 mmHg 97%
    05:00 -1°C° 0 mm 2 m/S 739 mmHg 96%
    06:00 -1°C° 0 mm 3 m/S 740 mmHg 96%
    07:00 -1°C° 0 mm 3 m/S 740 mmHg 95%
    08:00 -1°C° 0 mm 3 m/S 741 mmHg 94%
    09:00 -1°C° 0 mm 3 m/S 741 mmHg 94%
    10:00 0°C° 0 mm 3 m/S 742 mmHg 94%
    11:00 0°C° 0 mm 3 m/S 742 mmHg 93%
    12:00 0°C° 0 mm 3 m/S 742 mmHg 92%
    13:00 +1°C° 0 mm 3 m/S 743 mmHg 91%
    14:00 +1°C° 0 mm 3 m/S 743 mmHg 91%
    15:00 0°C° 0 mm 3 m/S 743 mmHg 92%
    16:00 0°C° 0 mm 3 m/S 743 mmHg 92%
    17:00 0°C° 0,1 mm 3 m/S 744 mmHg 92%
    18:00 -1°C° 0,1 mm 4 m/S 744 mmHg 93%
    19:00 -1°C° 0,1 mm 4 m/S 744 mmHg 93%
    20:00 -1°C° 0,1 mm 4 m/S 744 mmHg 92%
    21:00 -2°C° 0,1 mm 4 m/S 745 mmHg 92%
    22:00 -2°C° 0,1 mm 4 m/S 745 mmHg 91%
    23:00 -2°C° 0 mm 4 m/S 745 mmHg 91%
    Mehr zeigen